Location: Berlin
(38.3226°N, 75.2177°W)
Time: 22:32:59
(UTC+00:00)

H-2A R/B - Pass Details

Date: 26 October 2020
Orbit: 577 x 656 km, 98.5° (Epoch: 25 November)

Event Time Altitude Azimuth Distance (km) Brightness Sun altitude
Rises 09:17:02 0° 174° (S) 2,959 5.6 -25.0°
Reaches altitude 10° 09:19:16 10° 177° (S) 2,047 4.7 -24.5°
Enters shadow 09:20:49 21° 183° (S) 1,444 3.8 -24.2°
